sat.trackr.live / text

‹ back to catalog

GAOFEN-1 02

NORAD 43259 · 2018-031A

PAYLOAD ACTIVE UNKNOWN

§ Identity

Operator
Country
PRC
Launch date
2018-03-31
Launch site
TAISC
Launch vehicle
Mass (kg)
RCS (m²)

Purposes: earth_obs

External: N2YO · Heavens-Above · Gunter

§ Orbital elements

Epoch: 2026-05-25T04:31:44.080032Z

Period
97.53 min
Inclination
98.0533°
Eccentricity
0.0004646
Mean motion
14.76441117 rev/d
Perigee alt
637.3 km
Apogee alt
643.8 km
Semi-major
7,018.7 km
B*
4.7739e-5
RAAN
207.7783°
Arg perigee
86.3292°
Mean anomaly
273.8449°
Rev number
43,930

§ Raw data

GAOFEN-1 021 43259U 18031A   26145.18870463  .00000280  00000+0  47739-4 0  99942 43259  98.0533 207.7783 0004646  86.3292 273.8449 14.76441117439309

JSON: /api/v1/satellites/43259 · /tle

For live sub-satellite position, see the globe view (requires WebGL).

§ Visibility from observer

Set your observer location to see the next 7 days of passes ≥ 10°. The values pass through the URL so the page stays shareable.

No JS? Fill the form by hand. The geolocation button needs JavaScript.